Location: Bottenau
(48.5138°N, 8.0462°E)
Time: 20:55:52
(UTC+00:00)

Cosmos 1455 - Pass Details

Date: 18 April 2021
Orbit: 498 x 521 km, 82.5° (Epoch: 17 May)

Event Time Altitude Azimuth Distance (km) Brightness Sun altitude
Rises 19:13:58 0° 176° (S) 2,593 5.4 -8.5°
Reaches altitude 10° 19:16:06 10° 172° (S) 1,710 4.5 -8.8°
Maximum altitude 19:19:45 53° 95° (E) 626 2.3 -9.4°
Drops below altitude 10° 19:23:25 10° 19° (NNE) 1,716 5.0 -9.9°
Sets 19:25:34 0° 14° (NNE) 2,604 6.0 -10.2°
